Flag for India Weather past 2 weeks in Kãnpur, Uttar Pradesh, India

Now
93 °F

Cloudy.


Feels Like: 113 °F
Forecast: 76 / 95 °F
Wind: 5 mph from East

Location: Lucknow / Amausi

Current Time: Sep 20, 2014 at 11:40:17 AM

Latest Report: Sep 20, 2014 at 11:00 AM


Visibility: 2 mi

Pressure: 29.68 "Hg

Humidity: 67%

Dew point: 81 °F

Location of KãnpurLocation

Historic Weather in Kãnpur — Graph

°F

Kãnpur temperature yesterday

Maximum temperature yesterday: 102 °F (at 11:00 AM)
Minimum temperature yesterday: 81 °F (at 5:30 AM)
Average temperature yesterday: 92 °F

Past Weeks' High & Low Weather Summary

 TemperatureHumidityPressure
High104 °F (Sep 5, 3:00 PM)100% (Sep 6, 5:00 AM)29.74 "Hg (Sep 6, 5:00 AM)
Low75 °F (Sep 12, 10:30 AM)48% (Sep 5, 3:00 PM)29.50 "Hg (Sep 5, 3:30 PM)
Average87 °F80%29.63 "Hg
* Reported Sep 5 9:30 AM — Sep 20 10:00 AM, Kãnpur, Weather by CustomWeather, © 2014

Note: Actual official high and low records may vary slightly from our data, if they occured in-between our weather recording intervals... More about our weather records

Advertising

Kãnpur weather history for previous 24 hours

 ConditionsComfort  
Time TempWeatherWind HumidityBarometerVisibility
10:00 AM
Sep 20
90 °FFog.6 mph75%29.68 "Hg1 mi
9:30 AM86 °FFog.6 mph84%29.68 "Hg1 mi
9:00 AM86 °FFog.6 mph84%29.68 "Hg1 mi
8:30 AM84 °FFog.7 mph84%29.68 "Hg1 mi
8:00 AM81 °FFog.7 mph94%29.68 "Hg1 mi
6:30 AM81 °FFog.7 mph100%29.65 "Hg1 mi
4:00 AM79 °FPassing clouds.No wind94%29.59 "Hg2 mi
3:00 AM79 °FPassing clouds.No wind94%29.59 "Hg2 mi
2:00 AM79 °FPassing clouds.No wind94%29.62 "Hg2 mi
1:00 AM79 °FPassing clouds.No wind94%29.65 "Hg2 mi
12:00 AM81 °FPassing clouds.No wind94%29.65 "Hg2 mi
11:00 PM
Sep 19
81 °FPassing clouds.No wind94%29.65 "Hg3 mi
10:00 PM82 °FHaze.No wind89%29.65 "Hg3 mi
9:00 PM82 °FPassing clouds.No wind89%29.65 "Hg3 mi
8:30 PM84 °FHaze.No wind84%29.62 "Hg3 mi
8:00 PM84 °FHaze.No wind84%29.62 "Hg3 mi
7:30 PM86 °FPassing clouds.No wind84%29.62 "Hg3 mi
7:00 PM88 °FPassing clouds.No wind79%29.59 "Hg3 mi
5:30 PM97 °FScattered clouds.No wind60%29.56 "Hg3 mi
5:00 PM99 °FScattered clouds.No wind57%29.56 "Hg3 mi
4:30 PM100 °FScattered clouds.No wind53%29.56 "Hg3 mi
4:00 PM100 °FScattered clouds.6 mph50%29.56 "Hg3 mi
3:30 PM102 °FScattered clouds.6 mph51%29.56 "Hg3 mi
3:00 PM102 °FScattered clouds.7 mph51%29.59 "Hg3 mi
2:30 PM102 °FScattered clouds.5 mph51%29.62 "Hg3 mi
2:00 PM102 °FScattered clouds.5 mph51%29.62 "Hg3 mi
1:30 PM102 °FScattered clouds.5 mph51%29.62 "Hg3 mi
1:00 PM102 °FScattered clouds.6 mph51%29.65 "Hg3 mi
12:30 PM102 °FScattered clouds.5 mph51%29.65 "Hg3 mi
11:30 AM100 °FScattered clouds.5 mph57%29.68 "Hg3 mi
11:00 AM102 °FScattered clouds.2 mph54%29.68 "Hg3 mi
Weather by CustomWeather, © 2014

See weather overviewHow to use our weather pages